User: anonymous   Login
Location: Castelbiague
(43.0361°N, 0.9246°E)
Time: 09:29:33
(UTC+00:00)
Language:

Cosmos 1802 Rocket - Orbit

View from above orbital plane
View from above orbital plane
View from above satellite
View from above satellite

Ground track
Ground track

The orbit data is extracted from the following two-line orbital elements,

1 17160U 86093B   21263.79876043  .00000035  00000-0  20211-4 0  9997
2 17160  82.9319 349.5049 0040010 129.5112 347.5259 13.74652650746459
Epoch (UTC): 20 September 2021 19:10:12
Eccentricity: 0.0040010
inclination: 82.9319°
perigee height: 953 km
apogee height: 1012 km
right ascension of ascending node: 349.5049°
argument of perigee: 129.5112°
revolutions per day: 13.74652650
mean anomaly at epoch: 347.5259°
orbit number at epoch: 74645

The dashed part of the orbit path shows where the satellite is in the earth's shadow,  

DLR